Time,TemperatureF,DewpointF,PressureIn,WindDirection,WindDirectionDegrees,WindSpeedMPH,WindSpeedGustMPH,Humidity,HourlyPrecipIn,Conditions,Clouds,dailyrainin,SoftwareType,DateUTC
2013-03-26 00:01:00,28.6,24.1,30.30,West,270,8.0,11.0,83,0.00,,,0.03,meteohub,2013-03-26 05:01:00,
2013-03-26 00:06:00,28.6,24.1,30.31,NW,315,5.0,11.0,83,0.00,,,0.00,meteohub,2013-03-26 05:06:00,
2013-03-26 00:12:00,28.4,23.9,30.31,West,270,5.0,9.0,83,0.00,,,0.00,meteohub,2013-03-26 05:12:00,
2013-03-26 00:17:00,28.4,23.9,30.31,West,270,5.0,8.0,83,0.00,,,0.00,meteohub,2013-03-26 05:17:00,
2013-03-26 00:22:00,28.6,24.4,30.31,WNW,293,8.0,8.0,84,0.00,,,0.00,meteohub,2013-03-26 05:22:00,
2013-03-26 00:27:00,28.6,24.4,30.31,NW,315,4.0,9.0,84,0.00,,,0.00,meteohub,2013-03-26 05:27:00,
2013-03-26 00:32:00,28.6,24.4,30.31,WNW,293,5.0,9.0,84,0.00,,,0.00,meteohub,2013-03-26 05:32:00,
2013-03-26 00:37:00,28.6,24.4,30.31,NNE,23,4.0,9.0,84,0.00,,,0.00,meteohub,2013-03-26 05:37:00,
2013-03-26 00:42:00,28.6,24.4,30.31,NW,315,4.0,6.0,84,0.00,,,0.00,meteohub,2013-03-26 05:42:00,
2013-03-26 00:47:00,28.9,24.8,30.31,West,270,4.0,6.0,84,0.00,,,0.00,meteohub,2013-03-26 05:47:00,
2013-03-26 00:52:00,28.9,24.8,30.31,WSW,248,8.0,8.0,84,0.00,,,0.00,meteohub,2013-03-26 05:52:00,
2013-03-26 00:57:00,28.9,24.8,30.31,West,270,4.0,8.0,84,0.00,,,0.00,meteohub,2013-03-26 05:57:00,
2013-03-26 01:02:00,28.9,24.8,30.30,NW,315,7.0,8.0,84,0.00,,,0.00,meteohub,2013-03-26 06:02:00,
2013-03-26 01:07:00,28.9,25.0,30.30,WNW,293,6.0,8.0,85,0.00,,,0.00,meteohub,2013-03-26 06:07:00,
2013-03-26 01:12:00,28.8,24.8,30.31,WNW,293,6.0,7.0,85,0.00,,,0.00,meteohub,2013-03-26 06:12:00,
2013-03-26 01:17:00,28.9,25.0,30.30,WNW,293,4.0,7.0,85,0.00,,,0.00,meteohub,2013-03-26 06:17:00,
2013-03-26 01:22:00,28.9,25.0,30.30,West,270,4.0,8.0,85,0.00,,,0.00,meteohub,2013-03-26 06:22:00,
2013-03-26 01:27:00,28.9,25.0,30.31,West,270,6.0,8.0,85,0.00,,,0.00,meteohub,2013-03-26 06:27:00,
2013-03-26 01:32:00,28.9,25.0,30.31,North,0,4.0,6.0,85,0.00,,,0.00,meteohub,2013-03-26 06:32:00,
2013-03-26 01:37:00,28.9,25.0,30.31,NW,315,2.0,6.0,85,0.00,,,0.00,meteohub,2013-03-26 06:37:00,
2013-03-26 01:42:00,28.9,25.0,30.31,NW,315,3.0,6.0,85,0.00,,,0.00,meteohub,2013-03-26 06:42:00,
2013-03-26 01:47:00,28.9,25.0,30.30,NW,315,2.0,5.0,85,0.00,,,0.00,meteohub,2013-03-26 06:47:00,
2013-03-26 01:52:00,28.9,25.0,30.30,WNW,293,4.0,5.0,85,0.00,,,0.00,meteohub,2013-03-26 06:52:00,
2013-03-26 01:57:00,28.9,25.0,30.30,WSW,248,2.0,4.0,85,0.00,,,0.00,meteohub,2013-03-26 06:57:00,
2013-03-26 02:02:00,28.9,25.0,30.30,WNW,293,4.0,4.0,85,0.00,,,0.00,meteohub,2013-03-26 07:02:00,
2013-03-26 02:07:00,28.9,25.0,30.30,NW,315,3.0,4.0,85,0.00,,,0.00,meteohub,2013-03-26 07:07:00,
2013-03-26 02:12:00,28.9,25.0,30.30,NW,315,4.0,4.0,85,0.00,,,0.00,meteohub,2013-03-26 07:12:00,
2013-03-26 02:17:00,28.9,25.0,30.30,NW,315,8.0,8.0,85,0.00,,,0.00,meteohub,2013-03-26 07:17:00,
2013-03-26 02:22:00,28.9,25.0,30.32,NNE,23,2.0,8.0,85,0.00,,,0.00,meteohub,2013-03-26 07:22:00,
2013-03-26 02:27:00,28.9,25.0,30.32,NNW,338,2.0,8.0,85,0.00,,,0.00,meteohub,2013-03-26 07:27:00,
2013-03-26 02:32:00,28.9,25.0,30.32,WSW,248,8.0,8.0,85,0.00,,,0.00,meteohub,2013-03-26 07:32:00,
2013-03-26 02:37:00,28.9,25.0,30.32,NW,315,9.0,9.0,85,0.00,,,0.00,meteohub,2013-03-26 07:37:00,
2013-03-26 02:42:00,28.9,25.0,30.30,NW,315,3.0,9.0,85,0.00,,,0.00,meteohub,2013-03-26 07:42:00,
2013-03-26 02:47:00,28.8,24.8,30.31,West,270,7.0,9.0,85,0.00,,,0.00,meteohub,2013-03-26 07:47:00,
2013-03-26 02:52:00,28.9,25.0,30.30,South,180,4.0,9.0,85,0.00,,,0.00,meteohub,2013-03-26 07:52:00,
2013-03-26 02:57:00,28.6,24.6,30.31,West,270,4.0,7.0,85,0.00,,,0.00,meteohub,2013-03-26 07:57:00,
2013-03-26 03:02:00,28.6,24.6,30.31,West,270,5.0,7.0,85,0.00,,,0.00,meteohub,2013-03-26 08:02:00,
2013-03-26 03:07:00,28.6,24.6,30.31,WNW,293,5.0,5.0,85,0.00,,,0.00,meteohub,2013-03-26 08:07:00,
2013-03-26 03:13:00,28.4,24.4,30.31,WSW,248,6.0,6.0,85,0.00,,,0.00,meteohub,2013-03-26 08:13:00,
2013-03-26 03:17:00,28.4,24.4,30.31,West,270,2.0,6.0,85,0.00,,,0.00,meteohub,2013-03-26 08:17:00,
2013-03-26 03:23:00,28.2,24.3,30.31,NW,315,8.0,8.0,85,0.00,,,0.00,meteohub,2013-03-26 08:23:00,
2013-03-26 03:28:00,28.2,24.3,30.31,West,270,3.0,8.0,85,0.00,,,0.00,meteohub,2013-03-26 08:28:00,
2013-03-26 03:33:00,28.2,24.3,30.31,West,270,5.0,8.0,85,0.00,,,0.00,meteohub,2013-03-26 08:33:00,
2013-03-26 03:38:00,27.9,23.9,30.31,West,270,3.0,8.0,85,0.00,,,0.00,meteohub,2013-03-26 08:38:00,
2013-03-26 03:43:00,27.9,23.9,30.30,West,270,4.0,5.0,85,0.00,,,0.00,meteohub,2013-03-26 08:43:00,
2013-03-26 03:48:00,27.5,23.5,30.31,NW,315,3.0,5.0,85,0.00,,,0.00,meteohub,2013-03-26 08:48:00,
2013-03-26 03:53:00,27.1,23.2,30.31,NNW,338,2.0,4.0,85,0.00,,,0.00,meteohub,2013-03-26 08:53:00,
2013-03-26 03:58:00,27.0,22.8,30.31,NW,315,6.0,6.0,84,0.00,,,0.00,meteohub,2013-03-26 08:58:00,
2013-03-26 04:03:00,26.8,22.6,30.31,NW,315,5.0,5.0,84,0.00,,,0.00,meteohub,2013-03-26 09:03:00,
2013-03-26 04:08:00,26.4,22.3,30.31,WNW,293,2.0,6.0,84,0.00,,,0.00,meteohub,2013-03-26 09:08:00,
2013-03-26 04:13:00,26.2,22.3,30.31,NW,315,3.0,6.0,85,0.00,,,0.00,meteohub,2013-03-26 09:13:00,
2013-03-26 04:18:00,26.1,22.1,30.31,NW,315,2.0,5.0,85,0.00,,,0.00,meteohub,2013-03-26 09:18:00,
2013-03-26 04:23:00,26.1,22.1,30.31,WNW,293,4.0,5.0,85,0.00,,,0.00,meteohub,2013-03-26 09:23:00,
2013-03-26 04:28:00,25.7,21.7,30.31,West,270,2.0,5.0,85,0.00,,,0.00,meteohub,2013-03-26 09:28:00,
2013-03-26 04:33:00,25.5,21.6,30.31,NW,315,3.0,5.0,85,0.00,,,0.00,meteohub,2013-03-26 09:33:00,
2013-03-26 04:38:00,25.3,21.4,30.31,WNW,293,3.0,5.0,85,0.00,,,0.00,meteohub,2013-03-26 09:38:00,
2013-03-26 04:43:00,25.3,21.4,30.31,WSW,248,3.0,4.0,85,0.00,,,0.00,meteohub,2013-03-26 09:43:00,
2013-03-26 04:48:00,25.3,21.4,30.31,West,270,2.0,4.0,85,0.00,,,0.00,meteohub,2013-03-26 09:48:00,
2013-03-26 04:53:00,25.0,21.4,30.31,West,270,2.0,4.0,86,0.00,,,0.00,meteohub,2013-03-26 09:53:00,
2013-03-26 04:58:00,24.8,21.2,30.31,West,270,2.0,4.0,86,0.00,,,0.00,meteohub,2013-03-26 09:58:00,
2013-03-26 05:03:00,24.8,21.2,30.31,West,270,2.0,2.0,86,0.00,,,0.00,meteohub,2013-03-26 10:03:00,
2013-03-26 05:08:00,24.6,21.0,30.31,North,-999,-999.0,2.0,86,0.00,,,0.00,meteohub,2013-03-26 10:08:00,
2013-03-26 05:13:00,24.6,21.0,30.31,North,-999,-999.0,2.0,86,0.00,,,0.00,meteohub,2013-03-26 10:13:00,
2013-03-26 05:18:00,24.3,20.5,30.31,North,-999,-999.0,2.0,85,0.00,,,0.00,meteohub,2013-03-26 10:18:00,
2013-03-26 05:23:00,24.3,20.5,30.32,North,-999,-999.0,-999.0,85,0.00,,,0.00,meteohub,2013-03-26 10:23:00,
2013-03-26 05:28:00,24.1,20.5,30.32,North,-999,-999.0,-999.0,86,0.00,,,0.00,meteohub,2013-03-26 10:28:00,
2013-03-26 05:33:00,24.3,20.7,30.32,North,-999,-999.0,-999.0,86,0.00,,,0.00,meteohub,2013-03-26 10:33:00,
2013-03-26 05:38:00,23.9,20.3,30.32,North,-999,-999.0,-999.0,86,0.00,,,0.00,meteohub,2013-03-26 10:38:00,
2013-03-26 05:43:00,23.9,20.3,30.32,North,-999,-999.0,-999.0,86,0.00,,,0.00,meteohub,2013-03-26 10:43:00,
2013-03-26 05:48:00,23.9,20.3,30.32,North,-999,-999.0,-999.0,86,0.00,,,0.00,meteohub,2013-03-26 10:48:00,
2013-03-26 05:53:00,23.9,20.3,30.32,North,-999,-999.0,-999.0,86,0.00,,,0.00,meteohub,2013-03-26 10:53:00,
2013-03-26 05:58:00,23.7,20.1,30.32,NW,315,2.0,-999.0,86,0.00,,,0.00,meteohub,2013-03-26 10:58:00,
2013-03-26 06:03:00,23.9,20.3,30.32,WNW,293,2.0,-999.0,86,0.00,,,0.00,meteohub,2013-03-26 11:03:00,
2013-03-26 06:08:00,23.5,19.9,30.32,WNW,293,3.0,4.0,86,0.00,,,0.00,meteohub,2013-03-26 11:08:00,
2013-03-26 06:13:00,23.5,19.9,30.32,West,270,4.0,4.0,86,0.00,,,0.00,meteohub,2013-03-26 11:13:00,
2013-03-26 06:18:00,23.4,20.1,30.32,WSW,248,2.0,4.0,87,0.00,,,0.00,meteohub,2013-03-26 11:18:00,
2013-03-26 06:23:00,23.2,19.9,30.33,WNW,293,2.0,4.0,87,0.00,,,0.00,meteohub,2013-03-26 11:23:00,
2013-03-26 06:28:00,23.2,19.9,30.33,West,270,0.0,4.0,87,0.00,,,0.00,meteohub,2013-03-26 11:28:00,
2013-03-26 06:33:00,23.2,19.9,30.33,NNW,338,0.0,2.0,87,0.00,,,0.00,meteohub,2013-03-26 11:33:00,
2013-03-26 06:38:00,22.8,19.6,30.33,WNW,293,1.0,2.0,87,0.00,,,0.00,meteohub,2013-03-26 11:38:00,
2013-03-26 06:43:00,22.8,19.6,30.34,NNW,338,0.0,2.0,87,0.00,,,0.00,meteohub,2013-03-26 11:43:00,
2013-03-26 06:48:00,22.6,19.4,30.34,SE,135,0.0,3.0,87,0.00,,,0.00,meteohub,2013-03-26 11:48:00,
2013-03-26 06:53:00,22.6,19.4,30.34,WSW,248,0.0,3.0,87,0.00,,,0.00,meteohub,2013-03-26 11:53:00,
2013-03-26 06:58:00,22.5,19.2,30.35,WNW,293,0.0,3.0,87,0.00,,,0.00,meteohub,2013-03-26 11:58:00,
2013-03-26 07:03:00,22.5,19.2,30.35,South,180,0.0,0.0,87,0.00,,,0.00,meteohub,2013-03-26 12:03:00,
2013-03-26 07:08:00,22.1,18.9,30.35,WSW,248,1.0,0.0,87,0.00,,,0.00,meteohub,2013-03-26 12:08:00,
2013-03-26 07:13:00,21.9,18.7,30.35,WSW,248,2.0,2.0,87,0.00,,,0.00,meteohub,2013-03-26 12:13:00,
2013-03-26 07:18:00,21.7,18.1,30.36,WSW,248,2.0,2.0,86,0.00,,,0.00,meteohub,2013-03-26 12:18:00,
2013-03-26 07:23:00,21.7,18.5,30.38,WNW,293,2.0,2.0,87,0.00,,,0.00,meteohub,2013-03-26 12:23:00,
2013-03-26 07:28:00,21.7,18.5,30.38,West,270,2.0,2.0,87,0.00,,,0.00,meteohub,2013-03-26 12:28:00,
2013-03-26 07:33:00,21.6,18.3,30.38,WSW,248,2.0,3.0,87,0.00,,,0.00,meteohub,2013-03-26 12:33:00,
2013-03-26 07:39:00,21.6,18.3,30.38,West,270,4.0,4.0,87,0.00,,,0.00,meteohub,2013-03-26 12:39:00,
2013-03-26 07:44:00,21.7,18.5,30.43,WSW,248,3.0,4.0,87,0.00,,,0.00,meteohub,2013-03-26 12:44:00,
2013-03-26 07:49:00,22.1,18.9,30.43,WSW,248,3.0,4.0,87,0.00,,,0.00,meteohub,2013-03-26 12:49:00,
2013-03-26 07:54:00,22.5,19.4,30.43,WSW,248,6.0,6.0,88,0.00,,,0.00,meteohub,2013-03-26 12:54:00,
2013-03-26 07:59:00,23.2,20.1,30.42,WSW,248,4.0,4.0,88,0.00,,,0.00,meteohub,2013-03-26 12:59:00,
2013-03-26 08:04:00,23.9,20.8,30.39,WNW,293,7.0,7.0,88,0.00,,,0.00,meteohub,2013-03-26 13:04:00,
2013-03-26 08:09:00,24.6,21.6,30.39,WNW,293,4.0,7.0,88,0.00,,,0.00,meteohub,2013-03-26 13:09:00,
2013-03-26 08:14:00,25.0,21.9,30.39,West,270,5.0,7.0,88,0.00,,,0.00,meteohub,2013-03-26 13:14:00,
2013-03-26 08:19:00,26.1,23.0,30.39,WNW,293,5.0,8.0,88,0.00,,,0.00,meteohub,2013-03-26 13:19:00,
2013-03-26 08:24:00,26.4,23.4,30.38,SW,225,7.0,8.0,88,0.00,,,0.00,meteohub,2013-03-26 13:24:00,
2013-03-26 08:29:00,26.8,23.7,30.38,NW,315,6.0,8.0,88,0.00,,,0.00,meteohub,2013-03-26 13:29:00,
2013-03-26 08:34:00,26.8,23.4,30.38,NW,315,6.0,7.0,87,0.00,,,0.00,meteohub,2013-03-26 13:34:00,
2013-03-26 08:39:00,26.8,23.4,30.38,West,270,3.0,8.0,87,0.00,,,0.00,meteohub,2013-03-26 13:39:00,
2013-03-26 08:44:00,27.9,24.4,30.39,WSW,248,6.0,8.0,87,0.00,,,0.00,meteohub,2013-03-26 13:44:00,
2013-03-26 08:49:00,28.2,24.8,30.39,NW,315,11.0,11.0,87,0.00,,,0.00,meteohub,2013-03-26 13:49:00,
2013-03-26 08:54:00,29.1,25.7,30.39,WNW,293,4.0,6.0,87,0.00,,,0.00,meteohub,2013-03-26 13:54:00,
2013-03-26 08:59:00,29.7,26.1,30.39,WSW,248,8.0,11.0,86,0.00,,,0.00,meteohub,2013-03-26 13:59:00,
2013-03-26 09:04:00,30.0,26.4,30.38,West,270,5.0,11.0,86,0.00,,,0.00,meteohub,2013-03-26 14:04:00,
2013-03-26 09:09:00,30.4,26.8,30.38,West,270,3.0,8.0,86,0.00,,,0.00,meteohub,2013-03-26 14:09:00,
2013-03-26 09:14:00,30.4,26.4,30.38,West,270,6.0,8.0,85,0.00,,,0.00,meteohub,2013-03-26 14:14:00,
2013-03-26 09:19:00,30.7,26.8,30.38,West,270,4.0,8.0,85,0.00,,,0.00,meteohub,2013-03-26 14:19:00,
2013-03-26 09:24:00,31.5,27.1,30.39,West,270,3.0,8.0,84,0.00,,,0.00,meteohub,2013-03-26 14:24:00,
2013-03-26 09:29:00,31.8,27.5,30.39,WSW,248,9.0,9.0,84,0.00,,,0.00,meteohub,2013-03-26 14:29:00,
2013-03-26 09:34:00,32.0,27.7,30.39,WNW,293,4.0,9.0,84,0.00,,,0.00,meteohub,2013-03-26 14:34:00,
2013-03-26 09:39:00,32.4,28.0,30.39,West,270,4.0,9.0,84,0.00,,,0.00,meteohub,2013-03-26 14:39:00,
2013-03-26 09:44:00,32.5,27.7,30.40,West,270,9.0,9.0,82,0.00,,,0.00,meteohub,2013-03-26 14:44:00,
2013-03-26 09:49:00,32.5,27.7,30.40,WSW,248,3.0,8.0,82,0.00,,,0.00,meteohub,2013-03-26 14:49:00,
2013-03-26 09:54:00,32.5,27.7,30.40,NW,315,3.0,9.0,82,0.00,,,0.00,meteohub,2013-03-26 14:54:00,
2013-03-26 09:59:00,32.5,27.3,30.40,NNW,338,4.0,9.0,81,0.00,,,0.00,meteohub,2013-03-26 14:59:00,
2013-03-26 10:04:00,32.5,27.3,30.42,West,270,6.0,9.0,81,0.00,,,0.00,meteohub,2013-03-26 15:04:00,
2013-03-26 10:09:00,32.7,27.5,30.42,WNW,293,7.0,7.0,81,0.00,,,0.00,meteohub,2013-03-26 15:09:00,
2013-03-26 10:14:00,32.4,27.0,30.42,WSW,248,6.0,8.0,80,0.00,,,0.00,meteohub,2013-03-26 15:14:00,
2013-03-26 10:19:00,32.5,27.1,30.42,NNE,23,3.0,8.0,80,0.00,,,0.00,meteohub,2013-03-26 15:19:00,
2013-03-26 10:24:00,32.9,27.7,30.43,NNW,338,7.0,8.0,81,0.00,,,0.00,meteohub,2013-03-26 15:24:00,
2013-03-26 10:29:00,34.0,28.8,30.42,NW,315,2.0,7.0,81,0.00,,,0.00,meteohub,2013-03-26 15:29:00,
2013-03-26 10:34:00,34.2,28.6,30.42,North,0,5.0,7.0,80,0.00,,,0.00,meteohub,2013-03-26 15:34:00,
2013-03-26 10:39:00,34.9,29.3,30.42,NNE,23,3.0,7.0,80,0.00,,,0.00,meteohub,2013-03-26 15:39:00,
2013-03-26 10:44:00,35.4,29.5,30.43,West,270,2.0,5.0,79,0.00,,,0.00,meteohub,2013-03-26 15:44:00,
2013-03-26 10:49:00,35.4,29.5,30.43,WSW,248,2.0,5.0,79,0.00,,,0.00,meteohub,2013-03-26 15:49:00,
2013-03-26 10:54:00,35.4,29.3,30.43,NNE,23,4.0,5.0,78,0.00,,,0.00,meteohub,2013-03-26 15:54:00,
2013-03-26 10:59:00,35.1,28.9,30.43,NW,315,2.0,7.0,78,0.00,,,0.00,meteohub,2013-03-26 15:59:00,
2013-03-26 11:04:00,35.2,29.1,30.43,North,0,2.0,7.0,78,0.00,,,0.00,meteohub,2013-03-26 16:04:00,
2013-03-26 11:09:00,35.2,29.1,30.43,WNW,293,2.0,7.0,78,0.00,,,0.00,meteohub,2013-03-26 16:09:00,
2013-03-26 11:14:00,35.1,28.6,30.43,NNE,23,4.0,4.0,77,0.00,,,0.00,meteohub,2013-03-26 16:14:00,
2013-03-26 11:19:00,35.1,28.6,30.43,WSW,248,2.0,4.0,77,0.00,,,0.00,meteohub,2013-03-26 16:19:00,
2013-03-26 11:24:00,34.9,28.4,30.43,WSW,248,8.0,8.0,77,0.00,,,0.00,meteohub,2013-03-26 16:24:00,
2013-03-26 11:29:00,35.1,28.6,30.43,NW,315,3.0,6.0,77,0.00,,,0.00,meteohub,2013-03-26 16:29:00,
2013-03-26 11:34:00,35.4,29.3,30.43,WSW,248,6.0,8.0,78,0.00,,,0.00,meteohub,2013-03-26 16:34:00,
2013-03-26 11:39:00,35.4,28.9,30.43,WNW,293,6.0,8.0,77,0.00,,,0.00,meteohub,2013-03-26 16:39:00,
2013-03-26 11:44:00,35.4,28.9,30.43,NW,315,4.0,8.0,77,0.00,,,0.00,meteohub,2013-03-26 16:44:00,
2013-03-26 11:49:00,35.4,28.6,30.43,West,270,4.0,7.0,76,0.00,,,0.00,meteohub,2013-03-26 16:49:00,
2013-03-26 11:54:00,35.1,28.2,30.43,WSW,248,5.0,7.0,76,0.00,,,0.00,meteohub,2013-03-26 16:54:00,
2013-03-26 11:59:00,35.1,28.2,30.43,NW,315,1.0,5.0,76,0.00,,,0.00,meteohub,2013-03-26 16:59:00,
2013-03-26 12:05:00,34.9,28.0,30.43,SW,225,4.0,7.0,76,0.00,,,0.00,meteohub,2013-03-26 17:05:00,
2013-03-26 12:10:00,35.1,28.2,30.43,NNW,338,4.0,7.0,76,0.00,,,0.00,meteohub,2013-03-26 17:10:00,
2013-03-26 12:15:00,35.1,28.2,30.43,NW,315,5.0,7.0,76,0.00,,,0.00,meteohub,2013-03-26 17:15:00,
2013-03-26 12:20:00,35.1,28.2,30.43,SE,135,8.0,8.0,76,0.00,,,0.00,meteohub,2013-03-26 17:20:00,
2013-03-26 12:25:00,35.2,28.4,30.42,WSW,248,8.0,8.0,76,0.00,,,0.00,meteohub,2013-03-26 17:25:00,
2013-03-26 12:30:00,35.2,28.4,30.42,NNW,338,0.0,8.0,76,0.00,,,0.00,meteohub,2013-03-26 17:30:00,
2013-03-26 12:35:00,35.8,28.6,30.42,West,270,4.0,8.0,75,0.00,,,0.00,meteohub,2013-03-26 17:35:00,
2013-03-26 12:40:00,35.8,28.6,30.42,West,270,7.0,8.0,75,0.00,,,0.00,meteohub,2013-03-26 17:40:00,
2013-03-26 12:45:00,36.0,28.4,30.41,NW,315,2.0,7.0,74,0.00,,,0.00,meteohub,2013-03-26 17:45:00,
2013-03-26 12:50:00,36.1,28.4,30.41,NW,315,2.0,7.0,73,0.00,,,0.00,meteohub,2013-03-26 17:50:00,
2013-03-26 12:55:00,36.1,28.4,30.41,WNW,293,3.0,7.0,73,0.00,,,0.00,meteohub,2013-03-26 17:55:00,
2013-03-26 13:00:00,36.3,28.6,30.41,NW,315,3.0,4.0,73,0.00,,,0.00,meteohub,2013-03-26 18:00:00,
2013-03-26 13:05:00,36.5,28.8,30.41,WSW,248,8.0,8.0,73,0.00,,,0.00,meteohub,2013-03-26 18:05:00,
2013-03-26 13:10:00,36.5,28.8,30.41,WNW,293,6.0,8.0,73,0.00,,,0.00,meteohub,2013-03-26 18:10:00,
2013-03-26 13:15:00,36.3,28.2,30.41,NNW,338,3.0,8.0,72,0.00,,,0.00,meteohub,2013-03-26 18:15:00,
2013-03-26 13:20:00,36.3,28.2,30.41,WSW,248,5.0,8.0,72,0.00,,,0.00,meteohub,2013-03-26 18:20:00,
2013-03-26 13:25:00,36.3,28.6,30.40,WNW,293,6.0,8.0,73,0.00,,,0.00,meteohub,2013-03-26 18:25:00,
2013-03-26 13:30:00,36.3,28.6,30.40,West,270,2.0,8.0,73,0.00,,,0.00,meteohub,2013-03-26 18:30:00,
2013-03-26 13:35:00,36.3,28.6,30.40,West,270,5.0,8.0,73,0.00,,,0.00,meteohub,2013-03-26 18:35:00,
2013-03-26 13:40:00,36.5,28.8,30.39,WNW,293,7.0,7.0,73,0.00,,,0.00,meteohub,2013-03-26 18:40:00,
2013-03-26 13:45:00,36.5,28.8,30.41,WNW,293,4.0,8.0,73,0.00,,,0.00,meteohub,2013-03-26 18:45:00,
2013-03-26 13:50:00,36.3,27.9,30.41,WSW,248,8.0,8.0,71,0.00,,,0.00,meteohub,2013-03-26 18:50:00,
2013-03-26 13:55:00,36.5,28.0,30.41,WSW,248,6.0,8.0,71,0.00,,,0.00,meteohub,2013-03-26 18:55:00,
2013-03-26 14:00:00,36.3,28.2,30.41,West,270,3.0,8.0,72,0.00,,,0.00,meteohub,2013-03-26 19:00:00,
2013-03-26 14:05:00,36.5,28.4,30.39,NNE,23,2.0,8.0,72,0.00,,,0.00,meteohub,2013-03-26 19:05:00,
2013-03-26 14:10:00,36.5,28.0,30.39,WNW,293,6.0,10.0,71,0.00,,,0.00,meteohub,2013-03-26 19:10:00,
2013-03-26 14:15:00,36.7,28.2,30.39,NNW,338,6.0,10.0,71,0.00,,,0.00,meteohub,2013-03-26 19:15:00,
2013-03-26 14:20:00,36.5,28.0,30.39,West,270,9.0,10.0,71,0.00,,,0.00,meteohub,2013-03-26 19:20:00,
2013-03-26 14:25:00,36.9,28.4,30.35,West,270,7.0,9.0,71,0.00,,,0.00,meteohub,2013-03-26 19:25:00,
2013-03-26 14:30:00,36.7,28.2,30.35,WSW,248,8.0,9.0,71,0.00,,,0.00,meteohub,2013-03-26 19:30:00,
2013-03-26 14:35:00,36.9,28.4,30.35,NW,315,7.0,9.0,71,0.00,,,0.00,meteohub,2013-03-26 19:35:00,
2013-03-26 14:40:00,37.0,28.6,30.35,West,270,2.0,8.0,71,0.00,,,0.00,meteohub,2013-03-26 19:40:00,
2013-03-26 14:45:00,37.2,28.8,30.39,West,270,8.0,8.0,71,0.00,,,0.00,meteohub,2013-03-26 19:45:00,
2013-03-26 14:50:00,37.4,28.9,30.39,NW,315,8.0,9.0,71,0.00,,,0.00,meteohub,2013-03-26 19:50:00,
2013-03-26 14:55:00,37.2,28.8,30.39,South,180,5.0,9.0,71,0.00,,,0.00,meteohub,2013-03-26 19:55:00,
2013-03-26 15:00:00,37.2,28.4,30.39,West,270,8.0,9.0,70,0.00,,,0.00,meteohub,2013-03-26 20:00:00,
2013-03-26 15:05:00,37.2,28.4,30.37,WSW,248,2.0,9.0,70,0.00,,,0.00,meteohub,2013-03-26 20:05:00,
2013-03-26 15:10:00,37.6,28.8,30.37,West,270,7.0,9.0,70,0.00,,,0.00,meteohub,2013-03-26 20:10:00,
2013-03-26 15:15:00,37.8,28.9,30.37,WSW,248,9.0,9.0,70,0.00,,,0.00,meteohub,2013-03-26 20:15:00,
2013-03-26 15:20:00,37.8,28.9,30.37,ENE,68,5.0,9.0,70,0.00,,,0.00,meteohub,2013-03-26 20:20:00,
2013-03-26 15:25:00,38.3,29.3,30.37,WSW,248,7.0,9.0,70,0.00,,,0.00,meteohub,2013-03-26 20:25:00,
2013-03-26 15:30:00,38.3,29.3,30.37,WSW,248,9.0,9.0,70,0.00,,,0.00,meteohub,2013-03-26 20:30:00,
2013-03-26 15:35:00,38.1,29.1,30.37,WNW,293,9.0,9.0,70,0.00,,,0.00,meteohub,2013-03-26 20:35:00,
2013-03-26 15:40:00,37.9,29.1,30.38,WNW,293,3.0,9.0,70,0.00,,,0.00,meteohub,2013-03-26 20:40:00,
2013-03-26 15:45:00,38.3,29.3,30.37,WSW,248,3.0,9.0,70,0.00,,,0.00,meteohub,2013-03-26 20:45:00,
2013-03-26 15:50:00,37.8,28.6,30.37,WSW,248,5.0,9.0,69,0.00,,,0.00,meteohub,2013-03-26 20:50:00,
2013-03-26 15:55:00,37.9,28.8,30.37,South,180,2.0,6.0,69,0.00,,,0.00,meteohub,2013-03-26 20:55:00,
2013-03-26 16:00:00,38.3,28.9,30.37,WSW,248,6.0,6.0,69,0.00,,,0.00,meteohub,2013-03-26 21:00:00,
2013-03-26 16:05:00,38.5,29.1,30.36,SW,225,9.0,9.0,69,0.00,,,0.00,meteohub,2013-03-26 21:05:00,
2013-03-26 16:10:00,39.0,29.7,30.36,WSW,248,8.0,9.0,69,0.00,,,0.00,meteohub,2013-03-26 21:10:00,
2013-03-26 16:15:00,39.2,29.8,30.36,WNW,293,5.0,9.0,69,0.00,,,0.00,meteohub,2013-03-26 21:15:00,
2013-03-26 16:20:00,39.7,30.4,30.36,WSW,248,6.0,9.0,69,0.00,,,0.00,meteohub,2013-03-26 21:20:00,
2013-03-26 16:25:00,39.9,30.9,30.36,West,270,8.0,8.0,70,0.00,,,0.00,meteohub,2013-03-26 21:25:00,
2013-03-26 16:30:00,39.7,29.7,30.36,South,180,4.0,8.0,67,0.00,,,0.00,meteohub,2013-03-26 21:30:00,
2013-03-26 16:35:00,39.6,29.8,30.36,South,180,3.0,8.0,68,0.00,,,0.00,meteohub,2013-03-26 21:35:00,
2013-03-26 16:40:00,39.9,30.2,30.36,WNW,293,6.0,8.0,68,0.00,,,0.00,meteohub,2013-03-26 21:40:00,
2013-03-26 16:46:00,40.1,30.4,30.35,NW,315,3.0,9.0,68,0.00,,,0.00,meteohub,2013-03-26 21:46:00,
2013-03-26 16:51:00,40.1,29.7,30.35,NE,45,0.0,9.0,66,0.00,,,0.00,meteohub,2013-03-26 21:51:00,
2013-03-26 16:56:00,40.5,30.4,30.35,West,270,2.0,9.0,67,0.00,,,0.00,meteohub,2013-03-26 21:56:00,
2013-03-26 17:01:00,40.5,30.4,30.35,NW,315,5.0,7.0,67,0.00,,,0.00,meteohub,2013-03-26 22:01:00,
2013-03-26 17:06:00,40.8,31.1,30.35,NW,315,4.0,8.0,68,0.00,,,0.00,meteohub,2013-03-26 22:06:00,
2013-03-26 17:11:00,41.2,31.1,30.35,ESE,113,1.0,8.0,67,0.00,,,0.00,meteohub,2013-03-26 22:11:00,
2013-03-26 17:16:00,41.0,30.9,30.35,West,270,3.0,6.0,67,0.00,,,0.00,meteohub,2013-03-26 22:16:00,
2013-03-26 17:21:00,41.4,31.3,30.35,West,270,9.0,9.0,67,0.00,,,0.00,meteohub,2013-03-26 22:21:00,
2013-03-26 17:26:00,41.4,30.6,30.35,SE,135,6.0,9.0,65,0.00,,,0.00,meteohub,2013-03-26 22:26:00,
2013-03-26 17:31:00,41.4,30.6,30.35,WSW,248,5.0,9.0,65,0.00,,,0.00,meteohub,2013-03-26 22:31:00,
2013-03-26 17:36:00,41.2,30.4,30.35,SSW,203,2.0,9.0,65,0.00,,,0.00,meteohub,2013-03-26 22:36:00,
2013-03-26 17:41:00,41.2,30.4,30.35,WSW,248,4.0,6.0,65,0.00,,,0.00,meteohub,2013-03-26 22:41:00,
2013-03-26 17:46:00,40.8,29.7,30.34,South,180,5.0,6.0,64,0.00,,,0.00,meteohub,2013-03-26 22:46:00,
2013-03-26 17:51:00,40.5,29.7,30.34,South,180,5.0,6.0,65,0.00,,,0.00,meteohub,2013-03-26 22:51:00,
2013-03-26 17:56:00,40.5,29.7,30.34,SSW,203,4.0,5.0,65,0.00,,,0.00,meteohub,2013-03-26 22:56:00,
2013-03-26 18:02:00,40.1,29.3,30.34,WSW,248,5.0,6.0,65,0.00,,,0.00,meteohub,2013-03-26 23:02:00,
2013-03-26 18:07:00,40.1,29.3,30.31,WSW,248,2.0,6.0,65,0.00,,,0.00,meteohub,2013-03-26 23:07:00,
2013-03-26 18:12:00,40.1,29.3,30.31,North,0,0.0,6.0,65,0.00,,,0.00,meteohub,2013-03-26 23:12:00,
2013-03-26 18:17:00,40.5,29.7,30.31,WSW,248,2.0,5.0,65,0.00,,,0.00,meteohub,2013-03-26 23:17:00,
2013-03-26 18:22:00,40.5,29.7,30.29,South,180,0.0,4.0,65,0.00,,,0.00,meteohub,2013-03-26 23:22:00,
2013-03-26 18:27:00,40.5,29.7,30.29,SW,225,0.0,4.0,65,0.00,,,0.00,meteohub,2013-03-26 23:27:00,
2013-03-26 18:32:00,40.5,29.7,30.29,SSW,203,2.0,2.0,65,0.00,,,0.00,meteohub,2013-03-26 23:32:00,
2013-03-26 18:37:00,40.6,30.2,30.29,WSW,248,4.0,4.0,66,0.00,,,0.00,meteohub,2013-03-26 23:37:00,
2013-03-26 18:42:00,40.5,29.7,30.29,WSW,248,4.0,4.0,65,0.00,,,0.00,meteohub,2013-03-26 23:42:00,
2013-03-26 18:47:00,40.5,29.7,30.29,WSW,248,4.0,4.0,65,0.00,,,0.00,meteohub,2013-03-26 23:47:00,
2013-03-26 18:52:00,40.5,29.7,30.29,WSW,248,4.0,4.0,65,0.00,,,0.00,meteohub,2013-03-26 23:52:00,
2013-03-26 18:57:00,39.9,29.1,30.29,North,-999,-999.0,4.0,65,0.00,,,0.00,meteohub,2013-03-26 23:57:00,
2013-03-26 19:02:00,39.7,28.9,30.30,North,-999,-999.0,4.0,65,0.00,,,0.00,meteohub,2013-03-27 00:02:00,
2013-03-26 19:07:00,39.4,28.2,30.30,North,-999,-999.0,-999.0,64,0.00,,,0.00,meteohub,2013-03-27 00:07:00,
2013-03-26 19:12:00,39.2,28.4,30.30,North,-999,-999.0,-999.0,65,0.00,,,0.00,meteohub,2013-03-27 00:12:00,
2013-03-26 19:17:00,39.0,28.2,30.30,North,-999,-999.0,-999.0,65,0.00,,,0.00,meteohub,2013-03-27 00:17:00,
2013-03-26 19:22:00,38.5,27.7,30.31,North,-999,-999.0,-999.0,65,0.00,,,0.00,meteohub,2013-03-27 00:22:00,
2013-03-26 19:27:00,38.3,27.5,30.31,North,-999,-999.0,-999.0,65,0.00,,,0.00,meteohub,2013-03-27 00:27:00,
2013-03-26 19:32:00,37.8,27.5,30.31,North,-999,-999.0,-999.0,66,0.00,,,0.00,meteohub,2013-03-27 00:32:00,
2013-03-26 19:37:00,37.6,27.3,30.31,North,-999,-999.0,-999.0,66,0.00,,,0.00,meteohub,2013-03-27 00:37:00,
2013-03-26 19:42:00,37.2,27.0,30.30,North,-999,-999.0,-999.0,66,0.00,,,0.00,meteohub,2013-03-27 00:42:00,
2013-03-26 19:47:00,36.9,26.6,30.30,North,-999,-999.0,-999.0,66,0.00,,,0.00,meteohub,2013-03-27 00:47:00,
2013-03-26 19:52:00,36.1,25.9,30.30,North,-999,-999.0,-999.0,66,0.00,,,0.00,meteohub,2013-03-27 00:52:00,
2013-03-26 19:58:00,36.1,26.2,30.30,North,-999,-999.0,-999.0,67,0.00,,,0.00,meteohub,2013-03-27 00:58:00,
2013-03-26 20:03:00,35.4,25.5,30.30,North,-999,-999.0,-999.0,67,0.00,,,0.00,meteohub,2013-03-27 01:03:00,
2013-03-26 20:08:00,34.9,25.0,30.30,North,-999,-999.0,-999.0,67,0.00,,,0.00,meteohub,2013-03-27 01:08:00,
2013-03-26 20:13:00,34.3,24.8,30.31,North,-999,-999.0,-999.0,68,0.00,,,0.00,meteohub,2013-03-27 01:13:00,
2013-03-26 20:18:00,34.0,24.8,30.31,North,-999,-999.0,-999.0,69,0.00,,,0.00,meteohub,2013-03-27 01:18:00,
2013-03-26 20:23:00,33.4,24.4,30.31,North,-999,-999.0,-999.0,69,0.00,,,0.00,meteohub,2013-03-27 01:23:00,
2013-03-26 20:28:00,33.3,24.3,30.31,North,-999,-999.0,-999.0,69,0.00,,,0.00,meteohub,2013-03-27 01:28:00,
2013-03-26 20:33:00,32.7,24.1,30.32,North,-999,-999.0,-999.0,70,0.00,,,0.00,meteohub,2013-03-27 01:33:00,
2013-03-26 20:38:00,32.7,24.1,30.32,North,-999,-999.0,-999.0,70,0.00,,,0.00,meteohub,2013-03-27 01:38:00,
2013-03-26 20:43:00,32.5,24.3,30.31,North,-999,-999.0,-999.0,71,0.00,,,0.00,meteohub,2013-03-27 01:43:00,
2013-03-26 20:48:00,32.0,24.1,30.31,North,-999,-999.0,-999.0,72,0.00,,,0.00,meteohub,2013-03-27 01:48:00,
2013-03-26 20:53:00,31.8,23.9,30.32,North,-999,-999.0,-999.0,72,0.00,,,0.00,meteohub,2013-03-27 01:53:00,
2013-03-26 20:58:00,31.5,23.5,30.32,North,-999,-999.0,-999.0,72,0.00,,,0.00,meteohub,2013-03-27 01:58:00,
2013-03-26 21:03:00,31.1,23.5,30.32,North,-999,-999.0,-999.0,73,0.00,,,0.00,meteohub,2013-03-27 02:03:00,
2013-03-26 21:08:00,31.1,23.5,30.32,North,-999,-999.0,-999.0,73,0.00,,,0.00,meteohub,2013-03-27 02:08:00,
2013-03-26 21:13:00,30.6,23.0,30.32,North,-999,-999.0,-999.0,73,0.00,,,0.00,meteohub,2013-03-27 02:13:00,
2013-03-26 21:18:00,30.4,23.2,30.32,North,-999,-999.0,-999.0,74,0.00,,,0.00,meteohub,2013-03-27 02:18:00,
2013-03-26 21:23:00,30.4,23.2,30.32,North,-999,-999.0,-999.0,74,0.00,,,0.00,meteohub,2013-03-27 02:23:00,
2013-03-26 21:28:00,29.8,22.8,30.32,North,-999,-999.0,-999.0,75,0.00,,,0.00,meteohub,2013-03-27 02:28:00,
2013-03-26 21:33:00,29.7,22.6,30.32,North,-999,-999.0,-999.0,75,0.00,,,0.00,meteohub,2013-03-27 02:33:00,
2013-03-26 21:38:00,29.7,22.6,30.32,North,-999,-999.0,-999.0,75,0.00,,,0.00,meteohub,2013-03-27 02:38:00,
2013-03-26 21:43:00,29.7,22.6,30.32,North,-999,-999.0,-999.0,75,0.00,,,0.00,meteohub,2013-03-27 02:43:00,
2013-03-26 21:48:00,29.1,22.5,30.32,North,-999,-999.0,-999.0,76,0.00,,,0.00,meteohub,2013-03-27 02:48:00,
2013-03-26 21:53:00,28.9,22.3,30.32,North,-999,-999.0,-999.0,76,0.00,,,0.00,meteohub,2013-03-27 02:53:00,
2013-03-26 21:58:00,28.9,22.3,30.32,North,-999,-999.0,-999.0,76,0.00,,,0.00,meteohub,2013-03-27 02:58:00,
2013-03-26 22:03:00,28.4,22.1,30.32,North,-999,-999.0,-999.0,77,0.00,,,0.00,meteohub,2013-03-27 03:03:00,
2013-03-26 22:08:00,28.2,21.9,30.32,North,-999,-999.0,-999.0,77,0.00,,,0.00,meteohub,2013-03-27 03:08:00,
2013-03-26 22:13:00,28.2,21.9,30.32,North,-999,-999.0,-999.0,77,0.00,,,0.00,meteohub,2013-03-27 03:13:00,
2013-03-26 22:18:00,27.9,21.6,30.33,North,-999,-999.0,-999.0,77,0.00,,,0.00,meteohub,2013-03-27 03:18:00,
2013-03-26 22:23:00,27.9,21.9,30.34,North,-999,-999.0,-999.0,78,0.00,,,0.00,meteohub,2013-03-27 03:23:00,
2013-03-26 22:28:00,27.5,21.6,30.34,North,-999,-999.0,-999.0,78,0.00,,,0.00,meteohub,2013-03-27 03:28:00,
2013-03-26 22:33:00,27.5,21.6,30.34,North,-999,-999.0,-999.0,78,0.00,,,0.00,meteohub,2013-03-27 03:33:00,
2013-03-26 22:38:00,27.3,21.7,30.34,North,-999,-999.0,-999.0,79,0.00,,,0.00,meteohub,2013-03-27 03:38:00,
2013-03-26 22:43:00,27.1,21.6,30.34,North,-999,-999.0,-999.0,79,0.00,,,0.00,meteohub,2013-03-27 03:43:00,
2013-03-26 22:48:00,27.1,21.6,30.34,North,-999,-999.0,-999.0,79,0.00,,,0.00,meteohub,2013-03-27 03:48:00,
2013-03-26 22:53:00,27.1,21.6,30.34,North,-999,-999.0,-999.0,79,0.00,,,0.00,meteohub,2013-03-27 03:53:00,
2013-03-26 22:58:00,26.8,21.2,30.34,North,-999,-999.0,-999.0,79,0.00,,,0.00,meteohub,2013-03-27 03:58:00,
2013-03-26 23:00:00,26.8,21.2,30.34,North,-999,-999.0,-999.0,79,0.00,,,0.00,meteohub,2013-03-27 04:00:00,
2013-03-26 23:05:00,26.8,21.2,30.34,North,-999,-999.0,-999.0,79,0.00,,,0.00,meteohub,2013-03-27 04:05:00,
2013-03-26 23:10:00,26.8,21.2,30.34,North,-999,-999.0,-999.0,79,0.00,,,0.00,meteohub,2013-03-27 04:10:00,
2013-03-26 23:15:00,26.4,21.0,30.35,North,-999,-999.0,-999.0,80,0.00,,,0.00,meteohub,2013-03-27 04:15:00,
2013-03-26 23:20:00,26.1,20.7,30.35,North,-999,-999.0,-999.0,80,0.00,,,0.00,meteohub,2013-03-27 04:20:00,
2013-03-26 23:25:00,26.1,20.7,30.34,North,-999,-999.0,-999.0,80,0.00,,,0.00,meteohub,2013-03-27 04:25:00,
2013-03-26 23:30:00,26.1,20.7,30.34,North,-999,-999.0,-999.0,80,0.00,,,0.00,meteohub,2013-03-27 04:30:00,
2013-03-26 23:35:00,25.7,20.5,30.34,North,-999,-999.0,-999.0,80,0.00,,,0.00,meteohub,2013-03-27 04:35:00,
2013-03-26 23:40:00,25.7,20.7,30.34,North,-999,-999.0,-999.0,81,0.00,,,0.00,meteohub,2013-03-27 04:40:00,
2013-03-26 23:45:00,25.5,20.5,30.34,North,-999,-999.0,-999.0,81,0.00,,,0.00,meteohub,2013-03-27 04:45:00,
2013-03-26 23:50:00,25.3,20.3,30.34,North,-999,-999.0,-999.0,81,0.00,,,0.00,meteohub,2013-03-27 04:50:00,
2013-03-26 23:55:00,25.3,20.3,30.34,SE,135,0.0,-999.0,81,0.00,,,0.00,meteohub,2013-03-27 04:55:00,